Vorticity
7 6 6 6 7 7 8 9 9 9 9 10 11 11 10 10 11 11 11 11 11 11 11 11 11 11 12 12 13 14 15 16 18 18 19 20 21 22 22 23 23 23 23 23 22 22 21 20 20 19 18 18 17 17 17 17 17 17 16 17 17 18 18 19 20 21 21 21 21 21 22 21 20 20 22 22 20 17 16 19 20 20 18 18 18 19
7 7 7 8 8 8 9 10 11 11 9 10 11 10 9 10 10 10 11 11 11 10 10 10 10 11 12 13 14 15 17 18 19 20 21 22 22 22 22 22 22 22 22 21 20 19 19 18 17 16 16 15 15 15 15 16 16 16 17 18 18 20 20 21 22 22 21 21 21 21 20 20 19 19 23 21 18 17 18 18 18 18 18 20 23 24
6 7 9 8 8 9 9 10 11 12 11 11 10 10 10 10 10 10 10 10 10 10 10 10 10 11 12 14 15 17 18 20 21 21 22 22 22 22 22 22 21 21 20 19 18 16 16 15 14 13 13 13 13 13 14 14 15 16 17 18 19 21 22 22 21 20 20 19 18 17 17 17 18 20 23 23 23 22 20 18 16 16 17 23 25 24
7 8 9 8 9 11 11 10 10 11 12 12 11 10 10 10 11 11 10 10 10 10 10 10 11 12 14 15 16 18 20 21 21 22 22 22 22 22 21 21 20 19 18 16 15 14 13 12 12 11 11 11 12 12 13 14 15 16 17 18 20 20 21 21 19 18 17 15 14 13 14 15 16 19 21 21 20 18 17 17 16 17 17 20 19 18
9 10 9 8 10 12 12 11 10 10 11 12 11 11 11 11 11 10 10 10 10 10 10 11 12 13 15 16 18 19 20 21 22 22 22 22 21 21 21 20 19 18 16 15 13 12 12 11 10 10 10 10 11 12 13 14 15 16 18 19 20 20 20 19 18 16 15 15 14 14 13 14 16 18 18 16 14 13 14 14 15 16 17 18 17 16
9 10 9 10 10 11 10 11 11 11 11 12 11 11 11 11 10 10 10 10 10 11 11 11 12 14 15 16 18 19 20 21 22 22 22 21 21 21 20 20 18 16 15 13 12 10 10 10 9 10 10 10 11 12 13 14 16 17 18 19 19 19 19 19 17 15 13 13 13 13 13 14 16 17 17 15 14 13 12 13 14 15 16 15 15 16
10 11 10 12 12 11 10 11 12 12 11 10 10 11 12 11 11 10 10 10 10 11 11 12 12 13 15 16 18 19 21 21 22 22 22 21 21 20 20 18 17 15 13 11 10 9 8 8 9 10 10 11 12 13 14 15 16 16 17 17 17 17 18 18 16 13 11 12 12 12 12 14 16 17 17 15 14 12 11 11 12 13 14 14 14 15
9 11 13 12 12 11 13 13 13 13 13 11 10 10 11 11 12 11 10 10 10 11 11 12 12 13 15 17 18 20 20 22 22 23 22 21 20 19 18 16 15 13 11 9 8 8 8 8 9 10 11 11 12 12 13 13 14 14 14 14 13 14 15 16 14 10 7 8 9 10 12 14 15 16 15 14 12 11 10 10 11 12 12 12 13 14
9 9 12 13 11 9 9 13 15 15 14 12 11 10 9 10 10 10 10 10 10 11 11 12 13 13 15 17 19 20 21 22 22 22 21 20 19 18 16 14 13 11 9 8 7 6 7 8 9 10 11 12 11 11 10 10 10 10 10 10 10 11 12 13 11 8 5 6 6 8 10 13 14 13 13 12 12 11 10 11 11 10 10 10 10 12
13 12 10 12 13 12 8 10 13 14 13 13 12 12 10 10 9 9 10 10 10 10 11 12 13 14 15 18 20 21 21 21 21 21 20 20 18 16 14 12 11 9 8 6 5 4 4 6 8 10 11 11 10 9 8 7 6 6 6 7 7 8 9 11 11 10 8 8 8 8 8 10 10 11 10 11 11 12 12 12 12 11 10 8 8 9
13 14 11 10 12 14 16 13 11 11 11 11 12 12 13 12 11 10 10 10 10 10 11 12 13 15 17 18 20 20 20 19 19 18 19 19 18 16 13 12 10 7 6 4 3 2 2 4 6 9 11 11 10 8 7 5 4 3 2 2 3 4 6 8 10 11 12 11 10 9 9 9 9 9 9 10 11 11 12 13 14 14 12 10 8 8
12 12 12 10 9 10 14 14 13 12 12 12 11 11 12 12 11 10 10 10 10 11 12 12 14 16 19 20 19 18 18 17 16 15 15 17 17 15 13 12 9 7 5 4 2 1 1 4 6 8 10 10 9 7 6 4 3 2 1 1 2 2 2 4 6 9 11 12 12 11 10 10 9 9 9 9 9 10 10 13 14 15 15 13 11 9
13 13 11 10 10 10 11 11 11 12 13 13 12 11 10 9 9 9 10 10 10 11 13 13 15 17 20 22 20 18 15 14 13 12 13 14 14 14 12 11 10 8 7 6 4 4 4 5 7 8 8 7 6 5 4 4 4 4 4 5 6 6 3 3 4 7 10 12 12 12 12 11 10 9 9 9 8 8 8 10 13 14 16 15 13 11
12 13 11 10 11 11 12 11 11 12 13 13 12 12 10 9 8 8 9 9 11 12 13 14 16 17 19 20 19 16 13 11 10 9 10 11 11 11 10 9 8 8 7 6 6 6 7 8 8 8 7 6 5 5 5 6 8 9 10 11 12 12 9 6 6 7 8 10 12 12 12 11 10 9 8 8 8 7 7 8 9 11 13 14 14 13
11 10 10 11 11 12 13 13 13 13 13 13 12 11 10 9 9 9 9 10 11 13 14 15 16 17 19 19 17 14 11 9 8 7 7 7 7 7 7 7 7 6 6 6 6 7 8 9 9 7 6 5 5 6 8 11 15 18 19 20 20 20 17 13 10 8 8 10 10 11 11 10 10 9 8 7 7 7 6 5 5 6 8 10 11 12
13 13 13 12 12 13 14 13 13 12 11 10 10 10 10 9 9 9 10 11 12 13 15 15 15 16 18 17 15 12 9 7 7 6 5 4 4 4 4 4 5 5 5 5 6 7 8 9 8 6 5 5 7 9 13 17 21 24 27 28 28 27 25 19 14 11 11 11 11 10 10 9 9 8 8 7 7 7 6 4 4 4 6 7 8 9
15 15 14 12 12 12 12 12 11 9 7 7 8 9 9 8 8 9 11 12 14 15 16 15 14 14 13 13 12 10 7 6 6 5 4 4 3 2 2 3 4 5 6 6 7 8 8 8 7 6 6 8 11 15 18 21 23 25 27 29 30 30 27 21 17 14 14 15 15 13 10 10 9 9 8 8 8 8 7 6 6 7 8 8 9 10
15 14 12 12 12 10 8 8 7 6 6 6 6 8 9 9 9 10 13 14 15 16 15 15 15 14 11 10 8 6 5 5 5 5 6 6 5 4 5 5 6 8 8 8 8 8 8 7 8 8 11 14 17 19 21 21 22 23 24 26 25 22 16 16 13 11 11 15 17 17 14 13 12 10 10 10 10 9 9 8 8 8 10 12 13 13
13 12 12 12 11 10 8 7 6 6 8 8 8 8 8 9 11 13 15 16 16 15 13 13 13 13 11 9 7 6 5 5 5 6 6 7 8 8 9 9 10 11 10 10 9 9 8 9 11 13 16 18 20 21 21 21 22 23 24 24 20 16 13 13 12 9 6 8 10 13 15 13 12 11 12 12 11 10 8 8 8 10 13 15 15 15
12 12 13 11 9 9 10 10 9 9 10 9 9 8 9 10 12 15 17 16 15 14 12 12 11 10 7 7 7 6 5 5 5 5 5 6 8 10 11 12 12 12 11 10 10 10 10 12 14 17 18 19 20 20 20 22 23 24 26 26 22 17 14 14 13 11 8 3 4 7 10 11 10 9 9 12 13 12 10 9 10 11 12 11 11 12
13 14 15 13 12 11 12 12 13 12 12 11 10 11 12 13 15 16 16 13 12 11 12 12 10 7 6 5 5 5 3 3 3 2 3 5 7 9 12 12 12 12 11 11 11 12 13 15 17 18 19 19 19 19 19 20 21 23 24 26 25 23 20 18 16 14 10 4 2 3 7 9 9 8 5 7 10 13 14 14 12 9 6 4 5 7
16 16 18 18 17 15 14 14 14 14 14 13 13 13 14 15 16 15 12 10 10 10 10 10 8 6 4 3 4 3 1 1 0 -0 1 4 6 9 12 12 12 12 12 13 13 14 15 16 17 18 19 18 18 16 15 15 16 16 18 20 21 22 23 22 21 18 14 9 5 4 5 6 7 7 4 3 4 7 11 12 9 5 1 2 6 11
19 19 20 20 20 19 17 16 16 16 16 16 16 17 17 16 14 11 9 9 10 10 10 8 6 5 4 3 3 3 1 -1 -2 -2 -0 2 6 11 14 13 12 12 13 14 14 15 16 16 18 19 19 17 15 12 10 9 9 10 11 13 15 18 21 23 24 22 20 15 11 8 6 7 7 7 6 3 1 -0 1 2 2 0 1 6 13 19
18 19 20 20 20 20 19 19 18 18 18 19 19 19 18 16 13 11 10 10 10 10 8 7 6 5 5 4 4 3 1 -1 -2 -2 -1 2 9 14 16 13 12 12 12 13 13 14 15 17 18 18 17 14 11 9 8 9 10 11 12 13 14 16 19 22 24 24 23 20 16 13 10 9 9 8 8 6 3 0 0 1 1 2 5 11 16 20
10 12 17 20 21 21 21 20 20 20 20 19 18 16 14 13 12 12 12 12 11 9 7 6 5 5 4 4 4 3 2 0 -0 0 2 7 13 16 15 12 10 10 11 12 13 15 16 17 17 16 14 11 10 10 12 15 18 18 18 17 17 18 20 22 24 25 25 24 21 19 16 14 12 10 9 7 6 5 6 6 8 11 16 19 20 20
2 6 13 18 21 22 22 22 22 21 20 17 15 13 11 12 12 12 11 10 9 7 6 6 5 5 3 3 3 2 1 1 1 3 7 13 16 17 14 10 8 9 10 12 13 15 16 16 14 13 11 11 13 16 21 24 24 23 21 19 19 20 22 23 24 25 26 26 25 23 20 18 15 13 10 7 6 7 10 14 18 22 25 25 24 25
0 3 10 16 19 20 21 21 20 19 16 14 13 12 9 10 9 8 8 8 7 7 6 5 4 3 2 1 1 0 1 3 6 10 14 18 19 17 13 10 8 8 10 12 14 16 16 14 12 11 11 14 18 22 26 26 25 23 21 22 22 23 24 24 24 24 25 25 25 24 22 20 18 15 13 8 6 6 11 16 20 23 25 25 26 27
9 10 13 16 18 19 20 19 18 16 14 14 14 13 8 10 10 10 11 10 9 7 4 2 1 0 -0 1 3 5 8 11 16 20 22 21 18 15 12 9 8 8 10 12 15 17 16 13 11 10 12 16 20 24 25 24 23 22 23 24 25 25 24 24 24 23 23 23 23 22 21 20 19 18 18 17 14 12 15 18 20 21 20 21 23 24
22 20 18 18 19 19 19 18 15 13 13 14 14 14 12 15 16 14 9 5 2 1 2 3 4 5 7 9 12 15 19 22 25 26 24 20 16 12 10 8 9 10 12 13 15 16 15 11 10 10 13 18 21 23 24 22 22 22 23 23 23 23 23 22 22 22 21 21 20 20 20 20 21 22 24 25 23 20 20 21 22 21 21 21 20 20
21 19 17 18 19 19 18 15 13 12 12 12 13 14 15 14 11 7 2 1 2 4 8 11 14 18 20 21 22 23 24 26 26 24 20 16 13 10 9 10 12 13 13 13 14 14 12 8 8 9 14 18 22 24 24 22 20 20 19 19 19 18 18 19 19 20 19 19 19 20 20 21 21 22 23 24 22 21 21 20 19 18 19 19 18 17
15 14 15 17 18 17 14 13 12 12 13 15 15 15 13 9 5 2 2 5 9 12 16 19 21 23 24 23 22 22 22 23 22 20 16 13 12 10 9 11 13 15 15 13 12 10 9 7 6 9 14 20 24 25 23 20 17 15 14 14 14 15 15 15 16 16 17 17 17 16 17 17 17 17 16 16 15 15 15 14 13 13 15 17 17 16
13 14 14 15 14 12 10 10 12 14 17 17 16 14 11 6 4 4 7 10 13 15 16 17 18 19 19 18 18 18 20 21 20 18 15 13 12 11 11 12 14 15 15 13 10 7 6 6 8 12 16 20 23 24 21 17 14 12 12 13 15 16 16 15 14 14 13 12 11 10 10 10 10 11 11 11 12 12 12 12 12 12 14 16 16 15
12 12 12 11 10 9 8 9 12 15 17 16 14 12 8 6 6 7 7 7 8 9 11 13 15 16 17 17 18 18 20 20 20 17 14 13 12 11 12 13 15 15 14 12 8 5 3 4 9 14 16 19 20 20 19 15 12 10 11 14 18 20 20 18 16 13 10 8 7 7 6 7 7 8 9 10 12 13 13 13 13 13 14 14 15 15
10 9 8 7 7 6 6 8 11 14 14 12 10 7 5 4 2 1 0 1 2 5 8 12 16 17 18 18 19 20 19 19 18 16 13 12 11 11 12 14 15 14 14 11 8 4 3 4 9 14 16 17 17 17 17 15 13 11 11 12 15 17 19 18 16 14 11 10 8 8 7 7 7 7 7 8 10 11 12 12 12 12 13 14 15 16
9 6 4 4 4 5 6 8 10 11 11 8 6 3 2 -0 -2 -3 -3 -2 0 4 8 13 17 20 20 19 18 18 18 17 15 13 12 12 12 12 13 14 14 13 12 8 6 4 4 7 10 14 16 15 14 13 15 14 13 12 11 10 10 11 12 12 12 12 11 10 10 9 9 8 7 7 6 6 7 7 9 10 11 12 13 14 15 15
3 0 -2 -1 3 8 12 13 12 10 7 4 2 1 -0 -1 -2 -3 -3 -3 -1 2 6 13 19 22 24 21 19 18 16 15 13 12 12 12 12 13 13 13 13 12 10 6 4 4 5 8 11 12 13 12 12 12 13 13 12 12 11 10 9 8 8 8 9 9 9 10 10 9 9 8 7 6 5 4 4 5 6 8 9 11 12 12 12 12
-5 -4 -1 2 6 11 16 17 14 8 3 0 -1 -1 -1 -0 -1 -2 -3 -3 -2 1 6 12 18 24 26 24 22 20 18 16 16 15 15 13 12 13 14 13 12 11 8 5 4 4 6 9 11 11 10 10 11 12 13 13 13 13 14 13 11 10 9 9 9 9 10 10 10 10 8 6 5 4 3 3 3 4 5 7 8 9 10 10 10 10
-2 3 10 13 13 14 18 18 12 4 -4 -6 -5 -3 0 1 0 -2 -4 -3 -2 2 6 12 18 23 26 26 24 23 21 20 18 17 15 14 14 15 15 12 10 8 5 4 3 4 6 9 10 10 9 9 10 11 13 14 15 16 16 15 13 12 12 11 11 11 11 12 11 10 7 5 3 2 2 2 3 4 6 7 8 8 8 8 8 8
7 12 17 17 15 16 24 23 11 -3 -12 -10 -7 -2 2 2 1 -2 -4 -3 -1 3 7 12 17 22 26 26 25 23 22 19 17 16 15 16 16 17 16 12 9 7 5 4 4 5 7 8 9 10 9 9 10 12 13 14 16 16 16 16 16 16 15 13 12 12 11 11 10 9 7 4 3 2 2 2 3 5 7 7 7 7 7 7 7 7
9 11 15 15 14 17 27 27 14 -2 -13 -10 -4 2 7 5 2 -1 -2 -0 2 5 8 12 18 23 27 26 24 20 17 15 13 13 14 15 16 16 15 11 9 7 6 5 5 6 8 9 9 9 8 8 10 12 13 15 16 16 16 18 19 18 15 14 13 12 12 11 10 8 5 3 4 4 4 3 4 6 7 7 7 6 7 7 7 7
6 9 14 17 16 16 21 23 16 6 -3 -1 4 9 12 7 3 1 1 3 5 7 8 12 18 24 28 27 23 18 13 11 10 10 11 13 13 13 13 10 8 7 6 6 6 7 10 11 10 9 8 9 10 13 15 14 14 14 17 20 19 16 14 15 15 14 14 13 12 10 7 6 7 7 7 7 7 8 8 8 8 7 7 6 6 6
16 20 24 25 21 17 16 18 17 15 13 14 15 15 11 7 4 3 4 4 5 6 7 12 17 23 26 26 22 18 13 10 9 9 10 11 12 12 11 9 7 7 6 6 7 9 11 12 10 8 7 8 10 12 14 13 13 15 18 20 19 19 22 23 22 19 17 16 15 14 13 13 12 12 11 10 10 10 10 9 8 8 7 7 7 6
32 32 31 27 24 22 22 25 27 27 25 22 18 13 9 7 7 6 5 5 5 6 8 13 17 19 18 20 20 18 13 10 8 8 9 10 11 11 10 9 8 7 7 7 9 11 13 12 10 8 7 7 10 12 11 8 10 14 17 18 18 19 20 18 17 17 18 17 17 17 17 17 16 14 13 13 12 12 11 10 9 9 8 8 8 7
28 25 22 22 23 24 26 28 27 26 22 18 15 13 12 11 9 7 6 5 5 7 10 15 18 19 16 15 17 19 17 12 9 7 7 8 10 10 10 9 8 8 7 8 11 13 13 12 11 9 7 8 10 13 11 8 9 12 15 16 17 18 16 14 11 11 16 18 18 18 17 16 16 17 17 16 16 15 14 13 12 11 10 9 9 8
15 10 9 12 15 18 20 20 19 17 16 15 15 14 12 10 7 6 5 4 5 8 12 16 18 18 14 14 16 20 22 19 14 9 7 8 9 10 10 9 8 8 8 10 12 14 13 10 8 7 7 7 10 12 8 6 9 12 14 15 16 16 14 13 13 14 14 14 14 14 15 16 17 18 19 20 19 19 18 17 16 16 15 13 12 11
14 9 8 10 13 15 16 16 16 15 15 15 14 12 9 6 5 5 4 4 6 9 14 18 19 17 12 13 16 19 23 24 21 17 13 13 12 11 9 8 8 8 10 12 14 14 13 9 6 5 5 8 12 13 10 7 8 10 12 13 14 14 12 10 9 8 7 7 8 9 12 13 14 16 18 20 20 20 19 18 18 18 18 16 15 14
16 14 13 12 12 12 12 12 12 12 12 12 11 9 6 5 4 4 5 6 8 11 16 20 19 16 11 12 15 18 22 24 25 24 22 19 16 13 10 9 8 9 11 13 14 13 11 8 6 5 5 7 8 8 7 8 10 10 9 10 13 15 14 7 3 1 2 4 5 7 10 12 13 14 16 18 19 20 20 20 19 18 18 18 18 17
10 9 8 6 6 6 8 9 10 10 10 10 9 7 6 5 4 5 6 8 10 14 18 20 17 14 11 12 14 17 19 22 24 26 26 21 16 12 10 9 9 10 13 14 13 11 9 7 6 6 6 9 10 9 6 8 9 9 7 7 10 15 19 13 6 2 3 6 7 9 12 12 12 12 14 15 16 17 18 19 19 18 18 18 18 18
3 3 2 4 6 7 9 10 10 11 11 10 9 8 7 6 6 6 7 9 12 16 19 18 16 13 11 12 14 17 19 21 23 25 25 20 14 10 8 8 9 11 13 13 12 10 8 7 6 6 7 9 10 11 10 10 9 8 7 6 7 12 18 16 10 4 5 7 11 14 16 13 12 11 13 13 14 14 15 16 17 17 17 18 18 18
3 5 7 9 10 11 12 12 12 12 12 11 10 8 6 7 7 8 8 11 14 17 18 17 15 13 12 13 15 17 19 22 24 25 24 19 14 10 7 7 9 11 12 12 10 8 7 6 7 7 8 10 10 10 11 10 11 11 10 7 7 10 17 17 12 6 5 9 13 16 17 14 13 12 11 10 11 12 13 14 15 16 16 17 18 18
4 7 11 11 11 11 11 11 12 12 12 10 9 7 5 6 6 8 9 12 15 17 16 15 14 13 13 15 16 18 21 24 25 25 22 18 14 10 7 8 10 12 12 10 8 7 5 5 7 9 10 11 11 10 11 11 12 13 13 9 8 11 18 18 12 6 5 10 13 15 15 12 11 10 8 8 8 10 11 12 13 14 15 16 17 17
Height
3023 3022 3020 3019 3018 3016 3014 3014 3013 3011 3009 3009 3008 3006 3004 3003 3001 3000 2998 2996 2994 2993 2991 2989 2988 2987 2986 2985 2984 2982 2980 2978 2976 2974 2972 2970 2969 2967 2966 2965 2963 2963 2962 2960 2959 2959 2958 2957 2957 2956 2955 2954 2953 2953 2952 2952 2951 2950 2949 2948 2947 2946 2945 2944 2944 2943 2942 2942 2941 2940 2940 2939 2938 2938 2938 2938 2938 2938 2938 2937 2937 2936 2936 2937 2936 2936
3019 3018 3017 3015 3013 3012 3010 3009 3008 3007 3005 3004 3003 3002 3000 2998 2997 2995 2994 2992 2991 2989 2987 2986 2984 2983 2982 2981 2980 2978 2976 2974 2972 2970 2968 2966 2965 2963 2962 2961 2960 2959 2958 2957 2956 2956 2955 2954 2953 2953 2952 2952 2951 2950 2949 2948 2948 2947 2946 2945 2944 2943 2942 2941 2940 2940 2939 2939 2939 2939 2938 2938 2937 2937 2936 2935 2935 2934 2933 2933 2932 2932 2933 2933 2933 2933
3016 3014 3013 3012 3010 3008 3007 3005 3004 3003 3002 3000 2998 2997 2996 2994 2993 2991 2990 2988 2987 2985 2984 2982 2981 2979 2978 2977 2976 2974 2973 2970 2968 2966 2964 2963 2961 2960 2958 2958 2956 2955 2955 2954 2953 2953 2952 2952 2951 2950 2950 2949 2948 2947 2946 2945 2945 2944 2943 2942 2941 2940 2938 2938 2937 2936 2936 2936 2935 2935 2935 2934 2934 2933 2933 2932 2932 2931 2930 2930 2929 2930 2930 2930 2930 2929
3013 3011 3009 3008 3006 3005 3003 3002 3000 2999 2998 2996 2995 2993 2992 2990 2988 2987 2986 2984 2983 2981 2980 2979 2977 2976 2974 2973 2972 2970 2968 2967 2965 2963 2961 2960 2958 2957 2956 2954 2953 2953 2952 2951 2951 2950 2950 2949 2948 2948 2947 2946 2945 2944 2943 2942 2942 2941 2939 2939 2938 2937 2936 2935 2934 2933 2933 2933 2933 2932 2932 2931 2930 2930 2929 2929 2928 2928 2928 2927 2927 2927 2927 2927 2927 2927
3009 3007 3005 3004 3003 3001 3000 2998 2997 2995 2994 2993 2991 2990 2988 2987 2985 2983 2982 2981 2979 2978 2976 2975 2973 2972 2970 2969 2968 2966 2965 2963 2961 2960 2958 2957 2955 2954 2953 2952 2951 2950 2950 2949 2948 2948 2947 2947 2946 2945 2944 2943 2942 2941 2940 2939 2938 2938 2937 2936 2935 2934 2933 2932 2931 2931 2930 2930 2929 2929 2929 2928 2928 2927 2927 2927 2926 2926 2926 2925 2925 2925 2924 2924 2924 2925
3006 3004 3002 3000 2998 2997 2996 2995 2993 2992 2990 2989 2987 2986 2985 2983 2982 2980 2978 2977 2976 2974 2973 2971 2970 2968 2967 2965 2964 2963 2961 2960 2958 2957 2955 2954 2953 2952 2951 2950 2949 2948 2948 2947 2946 2946 2945 2944 2943 2943 2941 2940 2939 2938 2938 2937 2936 2935 2934 2933 2932 2931 2931 2930 2929 2929 2928 2928 2927 2927 2927 2926 2926 2925 2925 2924 2924 2924 2923 2923 2923 2923 2922 2922 2922 2922
3002 3000 2999 2997 2995 2993 2993 2991 2990 2988 2987 2985 2983 2982 2981 2980 2978 2977 2975 2973 2972 2970 2969 2968 2966 2965 2964 2962 2961 2959 2958 2957 2955 2954 2953 2951 2950 2949 2948 2947 2947 2946 2945 2945 2944 2943 2943 2942 2941 2940 2939 2938 2937 2936 2935 2934 2933 2932 2931 2931 2930 2929 2929 2928 2927 2927 2927 2926 2926 2925 2924 2924 2923 2923 2923 2922 2922 2922 2921 2921 2920 2920 2920 2920 2920 2920
2997 2996 2995 2994 2992 2989 2988 2988 2987 2985 2983 2981 2979 2978 2977 2976 2975 2973 2972 2970 2968 2967 2965 2964 2963 2962 2961 2960 2958 2956 2954 2953 2952 2951 2950 2948 2948 2947 2946 2945 2944 2944 2943 2943 2942 2942 2941 2940 2939 2938 2937 2936 2935 2934 2933 2932 2931 2930 2929 2928 2928 2928 2927 2926 2925 2925 2925 2924 2924 2923 2923 2922 2921 2921 2920 2920 2920 2919 2919 2919 2918 2918 2918 2918 2918 2918
2994 2992 2991 2990 2988 2986 2984 2983 2983 2983 2981 2978 2976 2974 2973 2972 2970 2969 2968 2967 2966 2964 2963 2961 2959 2958 2958 2957 2955 2953 2952 2950 2949 2948 2947 2946 2945 2944 2943 2943 2942 2942 2941 2941 2940 2940 2939 2938 2938 2937 2936 2934 2933 2932 2931 2930 2929 2928 2927 2927 2926 2926 2925 2924 2923 2923 2923 2923 2922 2921 2920 2920 2919 2919 2918 2918 2918 2917 2917 2917 2916 2916 2916 2916 2916 2916
2990 2988 2987 2985 2984 2983 2981 2980 2979 2978 2978 2975 2973 2972 2971 2969 2967 2965 2963 2963 2963 2962 2960 2958 2957 2955 2954 2953 2952 2951 2949 2948 2946 2945 2944 2943 2943 2942 2941 2940 2940 2940 2939 2939 2938 2938 2938 2937 2936 2935 2934 2933 2932 2930 2929 2928 2927 2926 2925 2925 2924 2923 2923 2923 2922 2922 2921 2921 2920 2919 2918 2918 2917 2917 2916 2916 2916 2915 2915 2915 2914 2914 2914 2914 2914 2914
2986 2985 2983 2981 2980 2978 2978 2976 2975 2975 2974 2972 2970 2968 2967 2966 2964 2962 2960 2958 2958 2958 2957 2955 2954 2953 2952 2950 2948 2947 2946 2945 2944 2943 2943 2942 2941 2940 2939 2938 2938 2938 2938 2937 2937 2936 2936 2935 2934 2933 2932 2931 2930 2928 2927 2926 2925 2924 2923 2923 2922 2922 2921 2921 2920 2919 2919 2918 2918 2917 2916 2915 2915 2914 2914 2914 2913 2913 2913 2913 2913 2913 2913 2912 2912 2912
2983 2981 2979 2978 2976 2975 2974 2973 2972 2971 2970 2969 2968 2966 2964 2963 2961 2960 2958 2956 2955 2954 2954 2952 2951 2950 2950 2948 2946 2944 2943 2943 2942 2941 2941 2940 2939 2938 2938 2937 2936 2936 2936 2935 2935 2934 2933 2933 2931 2930 2929 2928 2927 2926 2925 2924 2923 2922 2921 2920 2920 2920 2919 2919 2918 2917 2916 2915 2915 2914 2913 2913 2912 2912 2912 2911 2911 2911 2911 2911 2911 2911 2910 2910 2910 2910
2979 2978 2976 2974 2973 2972 2971 2970 2969 2968 2967 2966 2965 2963 2961 2960 2958 2957 2955 2953 2952 2952 2951 2949 2948 2947 2947 2946 2944 2942 2940 2940 2939 2939 2939 2938 2938 2937 2936 2935 2934 2934 2934 2933 2933 2932 2931 2930 2929 2928 2927 2926 2925 2924 2923 2921 2920 2919 2918 2918 2917 2917 2917 2916 2915 2914 2913 2913 2912 2911 2911 2910 2910 2909 2909 2909 2909 2909 2908 2908 2908 2908 2908 2908 2908 2908
2976 2975 2973 2971 2969 2968 2968 2967 2966 2965 2963 2963 2962 2960 2958 2957 2955 2954 2953 2951 2949 2949 2948 2947 2945 2944 2944 2944 2942 2940 2938 2937 2937 2936 2936 2936 2936 2935 2934 2933 2932 2932 2932 2931 2930 2929 2928 2927 2926 2925 2924 2923 2922 2921 2919 2918 2917 2916 2915 2914 2914 2914 2914 2913 2912 2911 2910 2910 2909 2908 2908 2908 2907 2907 2907 2907 2907 2906 2906 2906 2906 2906 2906 2906 2906 2906
2973 2971 2969 2967 2965 2964 2963 2963 2961 2960 2959 2958 2958 2956 2955 2953 2952 2951 2950 2948 2947 2946 2945 2944 2943 2942 2942 2942 2941 2939 2937 2935 2934 2933 2933 2933 2933 2933 2932 2930 2929 2929 2929 2928 2928 2927 2926 2925 2923 2922 2921 2920 2919 2917 2916 2914 2913 2912 2912 2911 2911 2910 2910 2910 2909 2908 2907 2907 2906 2906 2905 2905 2905 2904 2904 2904 2904 2904 2904 2904 2904 2904 2904 2904 2904 2904
2968 2967 2964 2962 2960 2959 2959 2958 2956 2955 2953 2953 2953 2952 2951 2950 2948 2948 2947 2946 2944 2943 2942 2941 2940 2939 2939 2939 2939 2938 2935 2933 2931 2930 2930 2930 2931 2931 2930 2928 2927 2926 2926 2926 2925 2924 2923 2922 2920 2919 2918 2917 2915 2914 2913 2911 2910 2909 2908 2908 2907 2907 2907 2907 2907 2905 2904 2904 2903 2903 2903 2903 2902 2902 2902 2902 2902 2902 2902 2902 2902 2902 2902 2902 2902 2902
2963 2962 2960 2958 2956 2955 2954 2954 2953 2951 2950 2949 2948 2948 2948 2947 2946 2945 2944 2943 2942 2941 2939 2938 2937 2936 2935 2936 2936 2936 2934 2932 2929 2928 2928 2928 2928 2928 2928 2926 2924 2923 2923 2923 2922 2921 2920 2919 2918 2916 2915 2913 2912 2911 2909 2908 2907 2906 2905 2904 2904 2904 2904 2904 2903 2903 2902 2901 2901 2901 2901 2900 2900 2900 2899 2899 2899 2899 2899 2899 2900 2900 2899 2900 2900 2900
2959 2958 2956 2955 2953 2952 2952 2951 2950 2949 2948 2947 2946 2945 2944 2943 2943 2943 2942 2940 2939 2938 2937 2936 2935 2934 2933 2933 2933 2933 2932 2930 2928 2926 2926 2925 2926 2926 2926 2924 2923 2921 2921 2920 2920 2918 2917 2916 2915 2913 2912 2910 2909 2907 2906 2904 2903 2903 2902 2901 2901 2901 2902 2901 2900 2899 2899 2899 2899 2899 2898 2898 2898 2897 2897 2896 2896 2897 2897 2897 2897 2898 2897 2898 2898 2898
2956 2955 2954 2953 2951 2950 2949 2949 2948 2948 2946 2945 2943 2943 2942 2941 2941 2940 2939 2938 2937 2936 2935 2933 2933 2932 2931 2931 2930 2930 2930 2928 2926 2924 2923 2922 2923 2923 2923 2922 2920 2919 2918 2918 2917 2916 2915 2913 2912 2910 2909 2907 2905 2904 2903 2901 2900 2899 2899 2898 2898 2899 2899 2897 2896 2895 2895 2896 2896 2896 2895 2895 2894 2894 2894 2894 2894 2894 2894 2895 2895 2895 2895 2895 2895 2895
2953 2952 2952 2952 2950 2949 2948 2947 2946 2946 2944 2943 2941 2940 2939 2939 2938 2938 2937 2936 2935 2934 2933 2932 2931 2930 2929 2928 2928 2928 2927 2926 2924 2922 2920 2919 2919 2920 2921 2919 2918 2916 2915 2915 2914 2913 2912 2910 2908 2907 2906 2904 2902 2901 2899 2898 2897 2896 2896 2895 2895 2895 2894 2893 2892 2892 2892 2893 2893 2892 2891 2891 2891 2891 2892 2892 2892 2892 2893 2893 2893 2893 2893 2893 2893 2893
2952 2950 2949 2949 2948 2947 2945 2944 2943 2943 2942 2941 2939 2938 2937 2937 2937 2936 2935 2934 2933 2932 2931 2930 2929 2928 2927 2926 2926 2925 2925 2924 2922 2919 2918 2916 2916 2917 2918 2917 2915 2913 2913 2912 2912 2911 2909 2907 2906 2904 2903 2901 2900 2898 2897 2896 2895 2894 2893 2893 2892 2891 2891 2890 2889 2889 2889 2889 2889 2889 2888 2888 2889 2889 2889 2889 2890 2890 2890 2890 2890 2891 2891 2891 2890 2890
2948 2948 2947 2946 2945 2944 2942 2941 2941 2940 2940 2938 2937 2936 2935 2935 2934 2933 2933 2932 2931 2929 2928 2928 2927 2926 2925 2924 2923 2923 2923 2922 2920 2918 2915 2914 2913 2914 2914 2914 2912 2911 2910 2909 2909 2908 2906 2905 2903 2902 2901 2899 2898 2897 2895 2894 2893 2892 2891 2890 2890 2889 2888 2888 2887 2887 2887 2887 2886 2886 2886 2886 2887 2887 2888 2888 2888 2888 2889 2888 2888 2889 2889 2889 2888 2888
2946 2945 2944 2943 2943 2941 2940 2939 2938 2938 2937 2936 2935 2934 2933 2933 2932 2931 2930 2929 2928 2928 2927 2925 2924 2923 2923 2922 2921 2921 2921 2920 2918 2916 2914 2912 2911 2911 2912 2911 2910 2908 2908 2907 2906 2905 2904 2903 2901 2900 2899 2898 2896 2895 2893 2892 2891 2890 2889 2888 2887 2886 2885 2885 2884 2884 2884 2884 2884 2884 2884 2885 2885 2886 2886 2887 2887 2887 2887 2887 2886 2886 2887 2887 2886 2886
2943 2941 2941 2940 2939 2938 2937 2936 2935 2934 2934 2933 2933 2932 2932 2931 2930 2929 2928 2928 2927 2926 2924 2923 2922 2921 2920 2919 2919 2919 2919 2919 2917 2915 2913 2911 2909 2909 2909 2909 2907 2906 2905 2905 2904 2903 2901 2900 2899 2898 2897 2896 2894 2893 2892 2890 2889 2888 2887 2885 2884 2883 2883 2882 2882 2881 2881 2881 2882 2882 2883 2883 2884 2884 2884 2885 2885 2885 2885 2885 2884 2884 2884 2885 2884 2884
2939 2938 2937 2936 2936 2935 2934 2933 2932 2932 2931 2931 2930 2930 2929 2929 2928 2927 2926 2926 2925 2924 2923 2921 2920 2918 2918 2917 2917 2917 2917 2917 2915 2913 2911 2909 2908 2907 2908 2907 2905 2904 2903 2903 2902 2901 2899 2898 2898 2897 2896 2894 2893 2891 2890 2888 2887 2885 2884 2883 2882 2881 2880 2880 2879 2879 2879 2880 2880 2881 2881 2882 2882 2882 2883 2883 2884 2884 2883 2883 2883 2882 2882 2882 2882 2881
2936 2935 2934 2933 2932 2931 2930 2930 2929 2929 2929 2928 2928 2928 2928 2928 2927 2926 2925 2924 2923 2922 2921 2919 2918 2917 2917 2916 2915 2914 2914 2913 2913 2911 2909 2907 2906 2905 2905 2905 2903 2902 2901 2900 2900 2899 2898 2897 2896 2895 2894 2893 2891 2889 2888 2886 2884 2883 2882 2880 2879 2879 2878 2878 2878 2878 2878 2878 2878 2879 2880 2880 2880 2881 2881 2882 2883 2883 2882 2881 2881 2880 2880 2880 2879 2878
2933 2932 2931 2929 2928 2928 2927 2927 2926 2926 2926 2926 2927 2927 2928 2928 2927 2925 2923 2922 2921 2920 2919 2918 2916 2915 2915 2914 2913 2913 2912 2911 2910 2909 2908 2906 2904 2903 2903 2903 2902 2900 2899 2898 2898 2897 2896 2895 2894 2893 2892 2890 2889 2887 2885 2883 2882 2880 2879 2878 2878 2877 2877 2876 2876 2876 2877 2877 2877 2878 2878 2878 2879 2879 2880 2880 2881 2881 2880 2880 2879 2879 2878 2877 2876 2875
2930 2929 2928 2927 2926 2925 2924 2924 2923 2923 2923 2923 2924 2925 2926 2925 2923 2922 2921 2920 2919 2918 2917 2916 2914 2913 2912 2911 2911 2910 2909 2909 2908 2907 2905 2904 2902 2901 2901 2901 2900 2898 2897 2896 2896 2895 2895 2893 2893 2891 2890 2888 2887 2885 2883 2882 2880 2879 2878 2877 2877 2876 2876 2875 2875 2875 2875 2876 2876 2876 2877 2877 2878 2878 2878 2878 2879 2879 2879 2878 2877 2876 2875 2874 2874 2874
2928 2927 2926 2925 2923 2923 2922 2922 2921 2921 2921 2921 2921 2921 2921 2920 2919 2918 2918 2918 2917 2916 2915 2914 2913 2912 2910 2909 2908 2908 2907 2907 2906 2905 2903 2902 2900 2900 2900 2899 2898 2897 2895 2894 2893 2893 2893 2892 2891 2890 2888 2887 2885 2883 2882 2880 2879 2878 2877 2877 2876 2875 2875 2875 2875 2875 2875 2875 2875 2875 2876 2876 2876 2877 2877 2877 2876 2876 2876 2876 2875 2874 2873 2873 2873 2873
2925 2924 2923 2922 2922 2921 2920 2920 2919 2919 2919 2919 2918 2918 2918 2918 2917 2917 2916 2916 2915 2914 2913 2912 2911 2910 2908 2907 2906 2905 2904 2904 2904 2903 2901 2899 2898 2898 2898 2898 2897 2895 2894 2893 2891 2891 2890 2890 2890 2888 2887 2885 2884 2882 2880 2879 2878 2877 2877 2876 2876 2875 2875 2874 2874 2874 2874 2874 2874 2875 2875 2875 2875 2875 2875 2875 2874 2874 2874 2874 2874 2873 2873 2872 2872 2871
2922 2922 2921 2920 2920 2919 2918 2918 2918 2917 2917 2917 2917 2917 2916 2916 2916 2916 2915 2914 2913 2912 2911 2909 2908 2908 2906 2905 2903 2903 2902 2903 2902 2901 2899 2898 2897 2896 2896 2896 2895 2894 2893 2892 2891 2889 2888 2888 2888 2887 2886 2884 2883 2881 2880 2878 2878 2877 2877 2876 2875 2875 2874 2874 2874 2874 2874 2874 2874 2874 2874 2874 2874 2873 2873 2873 2873 2873 2873 2873 2873 2873 2872 2871 2871 2870
2919 2919 2918 2918 2918 2917 2917 2916 2916 2916 2916 2915 2915 2914 2914 2914 2914 2914 2913 2912 2911 2910 2908 2907 2906 2905 2903 2903 2901 2901 2900 2900 2900 2899 2897 2896 2895 2895 2894 2894 2893 2893 2892 2892 2891 2889 2887 2886 2886 2885 2885 2883 2882 2881 2879 2878 2878 2877 2876 2876 2875 2875 2874 2874 2873 2873 2873 2873 2873 2873 2873 2873 2873 2873 2873 2872 2872 2872 2872 2871 2871 2871 2870 2870 2870 2870
2916 2916 2916 2916 2916 2915 2915 2915 2914 2914 2913 2913 2913 2912 2913 2913 2912 2912 2911 2910 2909 2908 2906 2905 2904 2903 2902 2901 2900 2899 2898 2898 2898 2897 2895 2894 2893 2893 2893 2892 2892 2891 2890 2890 2889 2888 2887 2886 2884 2884 2883 2883 2881 2880 2879 2878 2878 2877 2876 2876 2875 2874 2874 2873 2873 2873 2873 2873 2873 2873 2873 2872 2872 2872 2872 2871 2871 2871 2871 2870 2870 2869 2869 2869 2869 2869
2913 2913 2913 2913 2913 2913 2913 2913 2912 2912 2911 2910 2910 2910 2911 2910 2910 2909 2909 2908 2907 2906 2905 2903 2902 2901 2900 2899 2898 2897 2897 2897 2896 2895 2893 2893 2892 2891 2891 2891 2890 2889 2889 2888 2888 2887 2887 2886 2884 2883 2882 2882 2881 2879 2878 2878 2877 2876 2876 2875 2875 2874 2874 2873 2873 2873 2873 2873 2873 2872 2872 2872 2872 2871 2871 2871 2870 2870 2870 2869 2869 2868 2868 2868 2868 2868
2911 2911 2911 2911 2911 2910 2910 2910 2909 2909 2908 2908 2908 2908 2908 2908 2908 2907 2906 2906 2905 2904 2903 2902 2900 2899 2898 2897 2896 2895 2895 2895 2894 2893 2892 2892 2891 2890 2889 2889 2888 2888 2888 2887 2887 2886 2885 2885 2884 2883 2881 2881 2880 2879 2878 2877 2876 2876 2875 2874 2874 2874 2873 2873 2873 2873 2873 2873 2872 2872 2872 2871 2871 2871 2870 2870 2870 2869 2869 2868 2868 2868 2867 2867 2867 2867
2910 2909 2908 2908 2908 2908 2907 2907 2907 2906 2906 2906 2906 2906 2906 2905 2905 2905 2904 2903 2903 2902 2901 2900 2898 2897 2896 2895 2894 2893 2893 2893 2892 2891 2891 2890 2889 2889 2888 2888 2887 2887 2887 2886 2886 2885 2884 2884 2883 2882 2881 2880 2879 2878 2877 2876 2876 2875 2874 2874 2873 2873 2873 2873 2873 2872 2872 2872 2872 2872 2871 2871 2870 2870 2870 2869 2869 2869 2868 2868 2867 2867 2866 2866 2866 2866
2906 2905 2905 2905 2905 2905 2905 2904 2904 2904 2903 2903 2903 2903 2903 2903 2903 2903 2902 2901 2900 2900 2899 2898 2897 2895 2894 2893 2892 2891 2891 2890 2890 2889 2889 2888 2888 2888 2887 2886 2886 2886 2886 2885 2885 2884 2884 2883 2882 2881 2880 2879 2878 2877 2876 2876 2875 2874 2873 2873 2873 2872 2872 2872 2872 2872 2872 2872 2871 2871 2870 2870 2870 2869 2869 2868 2868 2868 2867 2866 2866 2866 2865 2865 2865 2865
2902 2902 2902 2902 2903 2903 2903 2903 2902 2901 2901 2901 2901 2901 2901 2901 2901 2900 2900 2899 2898 2898 2897 2896 2895 2894 2893 2891 2890 2889 2889 2888 2888 2888 2887 2887 2886 2886 2885 2885 2885 2885 2885 2885 2884 2884 2883 2882 2881 2880 2880 2879 2878 2876 2875 2874 2874 2873 2873 2872 2872 2871 2871 2871 2871 2871 2871 2871 2870 2870 2870 2869 2868 2868 2867 2867 2866 2866 2865 2865 2865 2865 2865 2865 2864 2864
2900 2899 2899 2899 2899 2900 2900 2900 2900 2899 2899 2899 2899 2899 2899 2899 2899 2898 2898 2897 2897 2896 2895 2894 2893 2892 2891 2890 2889 2888 2887 2887 2886 2886 2886 2885 2885 2884 2884 2884 2884 2884 2884 2884 2883 2883 2883 2882 2880 2879 2879 2878 2877 2876 2874 2873 2873 2873 2872 2871 2871 2870 2870 2870 2870 2869 2869 2869 2869 2869 2868 2868 2867 2866 2865 2865 2864 2864 2864 2864 2864 2864 2864 2864 2864 2863
2897 2897 2897 2897 2896 2897 2897 2897 2897 2897 2897 2897 2897 2897 2897 2897 2897 2897 2896 2895 2894 2893 2893 2892 2891 2890 2890 2888 2888 2887 2886 2885 2885 2885 2884 2884 2883 2883 2883 2883 2883 2883 2883 2883 2883 2882 2882 2881 2880 2879 2878 2877 2876 2875 2874 2873 2872 2872 2871 2870 2870 2869 2869 2868 2868 2868 2868 2868 2868 2868 2867 2866 2865 2864 2864 2864 2864 2863 2863 2863 2863 2863 2863 2863 2863 2863
2894 2894 2894 2894 2894 2894 2895 2895 2895 2895 2895 2895 2895 2895 2895 2895 2895 2895 2894 2894 2893 2892 2891 2890 2890 2889 2888 2887 2886 2885 2885 2884 2884 2883 2883 2883 2882 2882 2882 2882 2882 2882 2881 2882 2882 2881 2881 2880 2879 2878 2878 2877 2876 2875 2873 2872 2871 2871 2870 2870 2869 2868 2868 2868 2867 2867 2867 2867 2866 2866 2865 2864 2864 2864 2863 2863 2863 2863 2863 2863 2863 2863 2862 2862 2862 2862
2891 2891 2891 2891 2892 2892 2892 2893 2893 2893 2893 2893 2893 2893 2893 2893 2893 2893 2893 2892 2891 2890 2889 2889 2888 2887 2886 2885 2885 2884 2884 2883 2883 2883 2882 2882 2881 2881 2881 2881 2881 2880 2880 2880 2880 2880 2880 2879 2878 2878 2877 2876 2875 2874 2873 2872 2871 2870 2870 2869 2868 2868 2867 2867 2866 2866 2866 2865 2865 2864 2864 2863 2863 2863 2862 2862 2862 2862 2861 2861 2861 2861 2861 2861 2861 2861
2889 2889 2889 2889 2889 2890 2890 2891 2891 2891 2891 2891 2891 2891 2891 2891 2891 2891 2890 2890 2889 2888 2888 2887 2886 2885 2884 2883 2883 2883 2883 2883 2882 2881 2881 2881 2880 2880 2880 2880 2880 2879 2879 2880 2879 2879 2879 2878 2878 2877 2876 2875 2874 2874 2873 2872 2871 2870 2869 2868 2868 2868 2867 2866 2866 2865 2865 2864 2864 2863 2863 2863 2862 2861 2861 2861 2860 2860 2860 2860 2860 2860 2860 2860 2860 2860
2887 2887 2888 2888 2888 2888 2889 2889 2889 2889 2889 2889 2889 2889 2889 2889 2889 2889 2888 2888 2888 2887 2887 2886 2885 2884 2883 2882 2881 2881 2881 2881 2881 2880 2880 2879 2879 2879 2879 2879 2879 2878 2879 2879 2878 2878 2878 2878 2877 2876 2875 2874 2873 2873 2872 2871 2870 2870 2869 2868 2868 2867 2867 2866 2865 2865 2864 2863 2863 2863 2862 2861 2861 2860 2860 2860 2859 2859 2859 2859 2859 2859 2859 2859 2859 2859
2886 2886 2886 2886 2887 2887 2887 2887 2887 2887 2887 2887 2887 2887 2887 2887 2887 2887 2886 2886 2886 2886 2885 2884 2883 2883 2882 2881 2880 2879 2879 2879 2879 2879 2878 2878 2878 2878 2878 2878 2878 2878 2878 2878 2878 2877 2877 2877 2876 2875 2874 2873 2873 2872 2871 2870 2870 2869 2869 2868 2868 2867 2866 2865 2865 2864 2863 2863 2862 2861 2861 2860 2860 2860 2859 2859 2858 2858 2858 2858 2858 2858 2858 2858 2858 2858
2884 2885 2885 2885 2885 2885 2885 2885 2885 2885 2885 2885 2885 2885 2885 2885 2885 2885 2884 2884 2884 2884 2883 2883 2882 2881 2880 2879 2878 2877 2877 2877 2877 2877 2877 2877 2877 2877 2877 2876 2876 2877 2877 2877 2877 2876 2876 2876 2875 2874 2874 2873 2872 2871 2870 2869 2869 2869 2869 2868 2868 2867 2866 2865 2864 2863 2863 2862 2861 2861 2860 2860 2860 2859 2859 2858 2858 2858 2857 2857 2857 2857 2857 2857 2857 2857
2883 2884 2884 2884 2883 2883 2883 2883 2884 2884 2884 2884 2884 2883 2883 2883 2883 2883 2883 2883 2883 2882 2882 2881 2880 2879 2878 2877 2876 2875 2875 2875 2875 2875 2875 2875 2875 2875 2875 2875 2875 2875 2876 2876 2875 2875 2875 2874 2874 2873 2873 2872 2871 2870 2869 2869 2868 2868 2868 2868 2867 2866 2865 2864 2863 2863 2862 2861 2861 2860 2859 2859 2859 2859 2858 2858 2857 2857 2856 2856 2856 2856 2856 2856 2856 2856
2882 2882 2882 2882 2882 2882 2882 2882 2882 2882 2882 2882 2882 2882 2882 2882 2882 2882 2881 2881 2881 2881 2880 2879 2878 2877 2876 2875 2874 2873 2873 2873 2873 2873 2873 2873 2873 2874 2874 2874 2874 2874 2874 2874 2874 2874 2873 2873 2873 2872 2872 2871 2870 2870 2869 2868 2868 2867 2867 2866 2866 2866 2865 2864 2863 2862 2862 2861 2860 2859 2859 2858 2858 2858 2858 2858 2857 2857 2856 2856 2856 2855 2855 2855 2855 2855
2881 2881 2881 2881 2880 2880 2880 2880 2880 2880 2880 2880 2880 2880 2880 2880 2880 2880 2880 2880 2879 2879 2878 2877 2876 2875 2875 2874 2873 2872 2871 2871 2871 2871 2872 2872 2872 2872 2873 2873 2873 2873 2873 2873 2873 2873 2872 2872 2872 2871 2870 2870 2869 2868 2868 2868 2867 2866 2865 2865 2865 2864 2864 2864 2863 2862 2861 2860 2860 2859 2858 2858 2858 2858 2858 2857 2857 2856 2856 2855 2855 2855 2855 2855 2855 2855
2879 2879 2879 2879 2879 2879 2879 2878 2878 2878 2879 2879 2879 2879 2879 2879 2879 2879 2879 2878 2878 2877 2876 2875 2874 2873 2873 2872 2871 2871 2870 2870 2870 2870 2870 2870 2871 2871 2871 2872 2872 2873 2873 2872 2872 2872 2871 2871 2870 2870 2869 2869 2868 2868 2867 2867 2866 2866 2865 2864 2864 2864 2863 2863 2863 2862 2861 2860 2859 2859 2858 2858 2858 2857 2857 2857 2857 2856 2856 2855 2855 2855 2855 2854 2854 2854
2878 2878 2878 2878 2878 2878 2877 2877 2877 2877 2878 2878 2878 2878 2878 2878 2878 2878 2877 2877 2876 2875 2874 2873 2873 2872 2871 2870 2869 2869 2869 2869 2869 2869 2869 2869 2869 2870 2870 2871 2871 2871 2871 2871 2871 2871 2871 2870 2870 2869 2868 2868 2867 2867 2866 2866 2865 2865 2865 2864 2863 2863 2863 2863 2862 2862 2861 2860 2859 2859 2858 2858 2857 2857 2857 2856 2856 2856 2856 2855 2855 2854 2854 2854 2854 2853